| time (UTC) | temp F | wind direction | speed MPH | gust MPH | rain 1hr in | rain 24hr in | rain mn in | humidity % | barometer mb |
| 20260902201531 | 59 | 198 | 3.0 | 8.0 | 0.00 | 0.01 | 0.01 | 65 | 1005.4 |
| 20260902200030 | 59 | 240 | 4.0 | 7.0 | 0.00 | 0.01 | 0.01 | 64 | 1005.4 |
| 20260902194528 | 60 | 227 | 4.0 | 10.0 | 0.00 | 0.01 | 0.01 | 62 | 1005.4 |
| 20260902193028 | 60 | 233 | 5.0 | 12.0 | 0.00 | 0.01 | 0.01 | 60 | 1005.5 |
| 20260902191527 | 60 | 200 | 4.0 | 11.0 | 0.00 | 0.01 | 0.01 | 60 | 1005.4 |
| 20260902190028 | 61 | 204 | 5.0 | 10.0 | 0.00 | 0.01 | 0.01 | 60 | 1005.4 |
| 20260902184524 | 61 | 186 | 7.0 | 11.0 | 0.00 | 0.01 | 0.01 | 61 | 1005.4 |
| 20260902183025 | 61 | 207 | 4.0 | 10.0 | 0.00 | 0.01 | 0.01 | 60 | 1005.4 |
| 20260902181524 | 62 | 209 | 8.0 | 15.0 | 0.00 | 0.01 | 0.01 | 58 | 1005.4 |
| 20260902180023 | 62 | 235 | 9.0 | 15.0 | 0.00 | 0.01 | 0.01 | 57 | 1005.3 |
| 20260902174522 | 62 | 227 | 9.0 | 14.0 | 0.00 | 0.01 | 0.01 | 55 | 1005.2 |
| 20260902173021 | 63 | 227 | 8.0 | 16.0 | 0.00 | 0.01 | 0.01 | 53 | 1005.1 |
| 20260902171522 | 64 | 255 | 9.0 | 20.0 | 0.00 | 0.01 | 0.01 | 52 | 1005.0 |
| 20260902170020 | 65 | 227 | 7.0 | 16.0 | 0.00 | 0.01 | 0.01 | 51 | 1004.9 |
| 20260902164518 | 66 | 223 | 5.0 | 12.0 | 0.00 | 0.01 | 0.01 | 52 | 1004.7 |
| 20260902163020 | 67 | 228 | 4.0 | 10.0 | 0.00 | 0.01 | 0.01 | 53 | 1004.6 |
| 20260902161515 | 67 | 231 | 7.0 | 14.0 | 0.00 | 0.01 | 0.01 | 55 | 1004.5 |
| 20260902160023 | 68 | 175 | 6.0 | 10.0 | 0.00 | 0.01 | 0.01 | 59 | 1004.4 |
| 20260902154512 | 68 | 214 | 7.0 | 12.0 | 0.00 | 0.01 | 0.01 | 60 | 1004.4 |
| 20260902153008 | 68 | 239 | 4.0 | 10.0 | 0.00 | 0.01 | 0.01 | 63 | 1004.5 |
| 20260902151506 | 68 | 190 | 5.0 | 12.0 | 0.00 | 0.01 | 0.01 | 62 | 1004.5 |
| 20260902150004 | 67 | 230 | 6.0 | 9.0 | 0.00 | 0.09 | 0.01 | 66 | 1004.8 |
| 20260902144502 | 66 | 223 | 5.0 | 8.0 | 0.00 | 0.09 | 0.01 | 66 | 1004.8 |
| 20260902143001 | 67 | 213 | 3.0 | 10.0 | 0.00 | 0.09 | 0.01 | 67 | 1004.9 |
| 20260902141600 | 67 | 174 | 8.0 | 14.0 | 0.00 | 0.09 | 0.01 | 67 | 1005.0 |
| 20260902140104 | 66 | 153 | 6.0 | 10.0 | 0.00 | 0.09 | 0.01 | 69 | 1005.0 |
| 20260902134558 | 67 | 170 | 6.0 | 21.0 | 0.00 | 0.09 | 0.01 | 67 | 1005.1 |
| 20260902133056 | 67 | 182 | 7.0 | 14.0 | 0.00 | 0.09 | 0.01 | 67 | 1005.2 |
| 20260902131553 | 66 | 192 | 9.0 | 16.0 | 0.00 | 0.09 | 0.01 | 70 | 1005.4 |
| 20260902130053 | 66 | 202 | 7.0 | 11.0 | 0.00 | 0.09 | 0.01 | 70 | 1005.4 |
| 20260902124549 | 66 | 250 | 6.0 | 12.0 | 0.00 | 0.09 | 0.01 | 70 | 1005.5 |
| 20260902123049 | 65 | 247 | 6.0 | 15.0 | 0.00 | 0.09 | 0.01 | 71 | 1005.7 |
| 20260902121548 | 65 | 240 | 6.0 | 13.0 | 0.00 | 0.09 | 0.01 | 72 | 1005.7 |
| 20260902120043 | 65 | 244 | 5.0 | 10.0 | 0.00 | 0.09 | 0.01 | 74 | 1005.9 |
| 20260902114609 | 64 | 245 | 5.0 | 9.0 | 0.00 | 0.09 | 0.01 | 73 | 1006.0 |
| 20260902113043 | 64 | 213 | 5.0 | 8.0 | 0.00 | 0.09 | 0.01 | 73 | 1006.1 |
| 20260902111538 | 65 | 187 | 4.0 | 10.0 | 0.00 | 0.09 | 0.01 | 73 | 1006.2 |
| 20260902110037 | 64 | 216 | 7.0 | 11.0 | 0.00 | 0.09 | 0.01 | 73 | 1006.2 |
| 20260902104536 | 64 | 216 | 9.0 | 15.0 | 0.00 | 0.09 | 0.01 | 71 | 1006.3 |
| 20260902103034 | 65 | 219 | 9.0 | 15.0 | 0.00 | 0.09 | 0.01 | 72 | 1006.4 |
| 20260902101533 | 64 | 220 | 7.0 | 14.0 | 0.00 | 0.09 | 0.01 | 74 | 1006.5 |
| 20260902100031 | 64 | 193 | 7.0 | 15.0 | 0.00 | 0.09 | 0.01 | 74 | 1006.5 |
| 20260902094527 | 63 | 225 | 10.0 | 16.0 | 0.00 | 0.09 | 0.01 | 74 | 1006.6 |
| 20260902093027 | 63 | 232 | 8.0 | 16.0 | 0.00 | 0.09 | 0.01 | 74 | 1006.7 |
| 20260902091526 | 62 | 204 | 8.0 | 14.0 | 0.00 | 0.09 | 0.01 | 76 | 1006.7 |
| 20260902090021 | 62 | 199 | 7.0 | 16.0 | 0.00 | 0.09 | 0.01 | 77 | 1006.7 |
| 20260902084520 | 61 | 275 | 6.0 | 12.0 | 0.00 | 0.09 | 0.01 | 80 | 1006.6 |
| 20260902083116 | 60 | 179 | 5.0 | 9.0 | 0.00 | 0.09 | 0.01 | 83 | 1006.6 |
| 20260902081514 | 60 | 198 | 6.0 | 10.0 | 0.00 | 0.09 | 0.01 | 84 | 1006.6 |
| 20260902080013 | 59 | 196 | 4.0 | 8.0 | 0.00 | 0.09 | 0.01 | 87 | 1006.6 |
| 20260902074512 | 59 | 198 | 6.0 | 9.0 | 0.00 | 0.09 | 0.01 | 87 | 1006.7 |
| 20260902073006 | 59 | 234 | 6.0 | 11.0 | 0.00 | 0.09 | 0.01 | 88 | 1006.6 |
| 20260902071506 | 58 | 235 | 8.0 | 12.0 | 0.00 | 0.09 | 0.01 | 90 | 1006.5 |
| 20260902070002 | 58 | 204 | 6.0 | 9.0 | 0.00 | 0.09 | 0.01 | 93 | 1006.5 |
| 20260902064559 | 57 | 218 | 5.0 | 8.0 | 0.00 | 0.09 | 0.01 | 93 | 1006.5 |
| 20260902063058 | 57 | 221 | 4.0 | 7.0 | 0.00 | 0.09 | 0.01 | 93 | 1006.6 |
| 20260902061619 | 56 | 167 | 4.0 | 7.0 | 0.00 | 0.09 | 0.01 | 93 | 1006.5 |
| 20260902060058 | 56 | 213 | 1.0 | 4.0 | 0.00 | 0.09 | 0.01 | 93 | 1006.5 |
| 20260902054552 | 56 | 188 | 2.0 | 5.0 | 0.00 | 0.09 | 0.01 | 93 | 1006.4 |
| 20260902053050 | 55 | 202 | 0.0 | 3.0 | 0.00 | 0.09 | 0.01 | 93 | 1006.4 |
| 20260902051546 | 54 | 152 | 0.0 | 2.0 | 0.00 | 0.09 | 0.01 | 93 | 1006.4 |
| 20260902050145 | 52 | 176 | 0.0 | 3.0 | 0.00 | 0.09 | 0.01 | 93 | 1006.5 |
| 20260902044542 | 50 | 69 | 0.0 | 2.0 | 0.00 | 0.09 | 0.01 | 93 | 1006.4 |
| 20260902043044 | 49 | 69 | 0.0 | 0.0 | 0.00 | 0.09 | 0.01 | 93 | 1006.4 |
| 20260902041557 | 48 | 69 | 0.0 | 0.0 | 0.00 | 0.09 | 0.01 | 93 | 1006.4 |
| 20260902040044 | 48 | 69 | 0.0 | 0.0 | 0.00 | 0.09 | 0.01 | 93 | 1006.4 |
| 20260902034536 | 48 | 69 | 0.0 | 0.0 | 0.00 | 0.09 | 0.01 | 93 | 1006.5 |
| 20260902033040 | 48 | 69 | 0.0 | 0.0 | 0.00 | 0.09 | 0.01 | 93 | 1006.5 |
| 20260902031533 | 49 | 69 | 0.0 | 0.0 | 0.00 | 0.09 | 0.01 | 93 | 1006.6 |
| 20260902030033 | 49 | 69 | 0.0 | 0.0 | 0.00 | 0.09 | 0.01 | 93 | 1006.6 |
| 20260902024538 | 49 | 69 | 0.0 | 0.0 | 0.00 | 0.09 | 0.01 | 93 | 1006.6 |
| 20260902023029 | 49 | 69 | 0.0 | 0.0 | 0.00 | 0.09 | 0.01 | 93 | 1006.6 |
| 20260902021541 | 50 | 69 | 0.0 | 0.0 | 0.00 | 0.09 | 0.01 | 93 | 1006.6 |
| 20260902020027 | 50 | 69 | 0.0 | 0.0 | 0.00 | 0.09 | 0.01 | 93 | 1006.6 |
| 20260902014533 | 50 | 69 | 0.0 | 0.0 | 0.01 | 0.09 | 0.01 | 93 | 1006.5 |
| 20260902013021 | 51 | 69 | 0.0 | 0.0 | 0.01 | 0.09 | 0.01 | 93 | 1006.6 |
| 20260902011521 | 51 | 69 | 0.0 | 0.0 | 0.01 | 0.09 | 0.01 | 93 | 1006.6 |
| 20260902010026 | 52 | 69 | 0.0 | 0.0 | 0.01 | 0.09 | 0.01 | 93 | 1006.6 |
| 20260902004519 | 52 | 69 | 0.0 | 0.0 | 0.00 | 0.09 | 0.00 | 93 | 1006.5 |
| 20260902003018 | 53 | 69 | 0.0 | 0.0 | 0.00 | 0.09 | 0.00 | 93 | 1006.5 |
| 20260902001520 | 53 | 69 | 0.0 | 0.0 | 0.00 | 0.09 | 0.00 | 93 | 1006.5 |
| 20260902000015 | 53 | 69 | 0.0 | 0.0 | 0.00 | 0.09 | 0.00 | 93 | 1006.5 |
| 20260901234511 | 52 | 69 | 0.0 | 0.0 | 0.00 | 0.09 | 0.00 | 93 | 1006.6 |
| 20260901233016 | 52 | 69 | 0.0 | 0.0 | 0.00 | 0.09 | 0.00 | 93 | 1006.6 |
| 20260901231511 | 52 | 69 | 0.0 | 0.0 | 0.00 | 0.09 | 0.00 | 93 | 1006.6 |
| 20260901230006 | 51 | 69 | 0.0 | 0.0 | 0.00 | 0.09 | 0.00 | 93 | 1006.7 |
| 20260901224505 | 51 | 69 | 0.0 | 0.0 | 0.00 | 0.09 | 0.00 | 93 | 1006.7 |
| 20260901223004 | 51 | 69 | 0.0 | 0.0 | 0.00 | 0.09 | 0.00 | 93 | 1006.7 |
| 20260901221502 | 51 | 69 | 0.0 | 0.0 | 0.00 | 0.09 | 0.00 | 93 | 1006.7 |
| 20260901220059 | 51 | 69 | 0.0 | 0.0 | 0.00 | 0.09 | 0.00 | 93 | 1006.8 |
| 20260901214606 | 52 | 69 | 0.0 | 0.0 | 0.00 | 0.09 | 0.09 | 93 | 1006.8 |
| 20260901213135 | 52 | 69 | 0.0 | 0.0 | 0.00 | 0.09 | 0.09 | 93 | 1006.7 |
| 20260901211556 | 52 | 69 | 0.0 | 0.0 | 0.00 | 0.09 | 0.09 | 93 | 1006.7 |
| 20260901210055 | 52 | 69 | 0.0 | 0.0 | 0.00 | 0.09 | 0.09 | 92 | 1006.7 |
| 20260901204553 | 53 | 69 | 0.0 | 0.0 | 0.00 | 0.09 | 0.09 | 92 | 1006.8 |
| 20260901203117 | 54 | 69 | 0.0 | 0.0 | 0.00 | 0.09 | 0.09 | 93 | 1006.8 |